• In Belgium
  • List of Countries
  • For 7 days
  • Water Temperature
  • Satellite Maps
  • Weather Map
  • Weather Widgets
  • user-avatar
    Login

    Hourly Weather Suszow

    Today, 20 April, Friday

    Time Temperature Precipitation Wind Pressure Humidity
    00:00 +9°C° 0 mm 5 mps 746 mmHg 70%
    01:00 +8°C° 0 mm 4 mps 746 mmHg 74%
    02:00 +8°C° 0 mm 3 mps 746 mmHg 84%
    03:00 +7°C° 0 mm 3 mps 746 mmHg 86%
    04:00 +7°C° 0 mm 3 mps 746 mmHg 87%
    05:00 +7°C° 0 mm 3 mps 746 mmHg 89%
    06:00 +7°C° 0 mm 3 mps 746 mmHg 84%
    07:00 +8°C° 0 mm 3 mps 747 mmHg 79%
    08:00 +10°C° 0 mm 3 mps 747 mmHg 74%
    09:00 +11°C° 0 mm 3 mps 747 mmHg 68%
    10:00 +12°C° 0 mm 3 mps 747 mmHg 61%
    11:00 +14°C° 0 mm 4 mps 747 mmHg 55%
    12:00 +14°C° 0 mm 4 mps 747 mmHg 51%
    13:00 +15°C° 0 mm 4 mps 747 mmHg 48%
    14:00 +18°C° 0 mm 3 mps 747 mmHg 43%
    15:00 +18°C° 0 mm 3 mps 746 mmHg 44%
    16:00 +18°C° 0 mm 3 mps 746 mmHg 45%
    17:00 +18°C° 0 mm 3 mps 746 mmHg 45%
    18:00 +16°C° 0 mm 2 mps 745 mmHg 51%
    19:00 +14°C° 0 mm 2 mps 745 mmHg 56%
    20:00 +12°C° 0 mm 1 mps 745 mmHg 62%
    21:00 +12°C° 0 mm 1 mps 745 mmHg 63%
    22:00 +12°C° 0 mm 1 mps 745 mmHg 64%
    23:00 +11°C° 0 mm 1 mps 744 mmHg 65%

    Tomorrow, 21 April, Saturday

    Time Temperature Precipitation Wind Pressure Humidity
    00:00 +10°C° 0 mm 2 mps 744 mmHg 66%
    01:00 +9°C° 0 mm 2 mps 744 mmHg 68%
    02:00 +9°C° 0 mm 3 mps 744 mmHg 70%
    03:00 +9°C° 0 mm 3 mps 743 mmHg 71%
    04:00 +8°C° 0 mm 3 mps 742 mmHg 72%
    05:00 +8°C° 0 mm 3 mps 742 mmHg 73%
    06:00 +10°C° 0 mm 4 mps 741 mmHg 68%
    07:00 +10°C° 0 mm 5 mps 741 mmHg 62%
    08:00 +13°C° 0 mm 5 mps 741 mmHg 57%
    09:00 +15°C° 0 mm 6 mps 740 mmHg 53%
    10:00 +17°C° 0 mm 7 mps 740 mmHg 49%
    11:00 +21°C° 0 mm 7 mps 740 mmHg 45%
    12:00 +22°C° 0 mm 8 mps 739 mmHg 45%
    13:00 +23°C° 0 mm 8 mps 739 mmHg 45%
    14:00 +24°C° 0 mm 8 mps 739 mmHg 45%
    15:00 +23°C° 0 mm 7 mps 738 mmHg 48%
    16:00 +23°C° 0 mm 7 mps 738 mmHg 50%
    17:00 +22°C° 0 mm 6 mps 738 mmHg 52%
    18:00 +20°C° 0.1 mm 5 mps 738 mmHg 56%
    19:00 +17°C° 0.1 mm 5 mps 738 mmHg 61%
    20:00 +15°C° 0.1 mm 4 mps 738 mmHg 65%
    21:00 +14°C° 0 mm 4 mps 739 mmHg 67%
    22:00 +13°C° 0 mm 3 mps 739 mmHg 68%
    23:00 +11°C° 0 mm 3 mps 739 mmHg 70%

    Day after tomorrow, 22 April, Sunday

    Time Temperature Precipitation Wind Pressure Humidity
    00:00 +10°C° 0 mm 3 mps 739 mmHg 70%
    01:00 +10°C° 0 mm 2 mps 740 mmHg 70%
    02:00 +9°C° 0 mm 2 mps 740 mmHg 70%
    03:00 +8°C° 0 mm 2 mps 740 mmHg 71%
    04:00 +7°C° 0 mm 2 mps 740 mmHg 72%
    05:00 +7°C° 0 mm 2 mps 740 mmHg 73%
    06:00 +8°C° 0 mm 3 mps 740 mmHg 69%
    07:00 +9°C° 0 mm 3 mps 740 mmHg 66%
    08:00 +10°C° 0 mm 3 mps 741 mmHg 62%
    09:00 +12°C° 0 mm 3 mps 741 mmHg 57%
    10:00 +13°C° 0 mm 4 mps 741 mmHg 52%
    11:00 +15°C° 0 mm 4 mps 741 mmHg 47%
    12:00 +17°C° 0 mm 4 mps 740 mmHg 45%
    13:00 +17°C° 0 mm 4 mps 740 mmHg 44%
    14:00 +18°C° 0 mm 4 mps 740 mmHg 42%
    15:00 +18°C° 0 mm 4 mps 739 mmHg 43%
    16:00 +18°C° 0 mm 4 mps 739 mmHg 44%
    17:00 +18°C° 0 mm 4 mps 739 mmHg 45%
    18:00 +16°C° 0 mm 3 mps 739 mmHg 50%
    19:00 +13°C° 0 mm 3 mps 739 mmHg 56%
    20:00 +12°C° 0 mm 2 mps 739 mmHg 62%
    21:00 +12°C° 0 mm 2 mps 739 mmHg 63%
    22:00 +10°C° 0 mm 2 mps 739 mmHg 64%
    23:00 +10°C° 0 mm 1 mps 739 mmHg 65%

    23 April, Monday

    Time Temperature Precipitation Wind Pressure Humidity
    00:00 +10°C° 0 mm 1 mps 739 mmHg 66%
    01:00 +10°C° 0 mm 1 mps 739 mmHg 67%
    02:00 +9°C° 0 mm 1 mps 739 mmHg 68%
    03:00 +9°C° 0 mm 1 mps 739 mmHg 69%
    04:00 +8°C° 0 mm 1 mps 739 mmHg 70%
    05:00 +8°C° 0 mm 1 mps 739 mmHg 72%
    06:00 +10°C° 0 mm 1 mps 739 mmHg 68%
    07:00 +11°C° 0 mm 1 mps 739 mmHg 64%
    08:00 +13°C° 0 mm 1 mps 739 mmHg 60%
    09:00 +14°C° 0 mm 1 mps 739 mmHg 54%
    10:00 +16°C° 0 mm 1 mps 739 mmHg 49%
    11:00 +19°C° 0 mm 1 mps 739 mmHg 44%
    12:00 +20°C° 0 mm 1 mps 739 mmHg 41%
    13:00 +20°C° 0 mm 1 mps 738 mmHg 39%
    14:00 +20°C° 0 mm 2 mps 738 mmHg 37%
    15:00 +20°C° 0 mm 2 mps 737 mmHg 39%
    16:00 +21°C° 0 mm 2 mps 736 mmHg 40%
    17:00 +21°C° 0 mm 2 mps 736 mmHg 42%
    18:00 +19°C° 0.4 mm 3 mps 735 mmHg 49%
    19:00 +18°C° 0.4 mm 3 mps 735 mmHg 56%
    20:00 +16°C° 0.4 mm 3 mps 735 mmHg 63%
    21:00 +15°C° 2.6 mm 4 mps 735 mmHg 72%
    22:00 +14°C° 2.6 mm 4 mps 735 mmHg 81%
    23:00 +14°C° 2.6 mm 4 mps 735 mmHg 90%

    24 April, Tuesday

    Time Temperature Precipitation Wind Pressure Humidity
    00:00 +13°C° 0 mm 4 mps 735 mmHg 91%
    01:00 +13°C° 0 mm 4 mps 735 mmHg 93%
    02:00 +12°C° 0 mm 4 mps 735 mmHg 95%
    03:00 +12°C° 0 mm 4 mps 735 mmHg 94%
    04:00 +12°C° 0 mm 4 mps 736 mmHg 93%
    05:00 +12°C° 0 mm 4 mps 736 mmHg 93%
    06:00 +12°C° 0.1 mm 5 mps 737 mmHg 88%
    07:00 +12°C° 0.1 mm 5 mps 737 mmHg 83%
    08:00 +10°C° 0.1 mm 5 mps 738 mmHg 78%
    09:00 +13°C° 0 mm 5 mps 738 mmHg 70%
    10:00 +14°C° 0 mm 6 mps 738 mmHg 63%
    11:00 +15°C° 0 mm 6 mps 739 mmHg 56%
    12:00 +15°C° 0 mm 6 mps 739 mmHg 55%
    13:00 +16°C° 0 mm 6 mps 738 mmHg 54%
    14:00 +17°C° 0 mm 6 mps 738 mmHg 53%
    15:00 +16°C° 0 mm 5 mps 738 mmHg 55%
    16:00 +16°C° 0 mm 5 mps 738 mmHg 57%
    17:00 +16°C° 0 mm 5 mps 738 mmHg 58%
    18:00 +15°C° 0 mm 4 mps 738 mmHg 63%
    19:00 +14°C° 0 mm 3 mps 738 mmHg 68%
    20:00 +14°C° 0 mm 2 mps 738 mmHg 72%
    21:00 +13°C° 0.1 mm 2 mps 738 mmHg 75%
    22:00 +13°C° 0.1 mm 2 mps 738 mmHg 78%
    23:00 +13°C° 0.1 mm 2 mps 738 mmHg 80%

    25 April, Wednesday

    Time Temperature Precipitation Wind Pressure Humidity
    00:00 +13°C° 0.1 mm 2 mps 738 mmHg 81%
    01:00 +13°C° 0.1 mm 2 mps 738 mmHg 82%
    02:00 +11°C° 0.1 mm 3 mps 738 mmHg 83%
    03:00 +11°C° 0 mm 3 mps 738 mmHg 84%
    04:00 +11°C° 0 mm 3 mps 738 mmHg 85%
    05:00 +11°C° 0 mm 3 mps 738 mmHg 86%
    06:00 +12°C° 0 mm 4 mps 738 mmHg 82%
    07:00 +13°C° 0 mm 4 mps 738 mmHg 78%
    08:00 +14°C° 0 mm 4 mps 738 mmHg 75%
    09:00 +16°C° 0 mm 5 mps 738 mmHg 67%
    10:00 +19°C° 0 mm 6 mps 737 mmHg 60%
    11:00 +21°C° 0 mm 7 mps 737 mmHg 53%
    12:00 +22°C° 0 mm 7 mps 737 mmHg 51%
    13:00 +22°C° 0 mm 8 mps 737 mmHg 49%
    14:00 +23°C° 0 mm 8 mps 736 mmHg 47%
    15:00 +23°C° 0 mm 7 mps 736 mmHg 49%
    16:00 +23°C° 0 mm 6 mps 735 mmHg 51%
    17:00 +23°C° 0 mm 5 mps 735 mmHg 53%
    18:00 +21°C° 0.2 mm 4 mps 735 mmHg 59%
    19:00 +20°C° 0.2 mm 4 mps 734 mmHg 65%
    20:00 +18°C° 0.2 mm 3 mps 734 mmHg 72%
    21:00 +17°C° 0.7 mm 3 mps 734 mmHg 77%
    22:00 +16°C° 0.7 mm 3 mps 734 mmHg 83%
    23:00 +15°C° 0.7 mm 2 mps 734 mmHg 89%
    Show more